Aeroporto :
LOGIN :

Iscrizione | Disclaimer

   EN    FR    IT 

 










Sommario :    VFR   VFR Marginale   IFR   IFR Intensivo   IFR Molto Intensivo
Visibilità : 
Base nubi : 
>= 8 km
>= 3000ft
5 / 8 km
1000 / 3000 ft
1500m / 5 km
500 / 1000 ft
800 / 1500m
200 / 500 ft
< 800m
< 200 ft
Simboli :   Temporali  Nebbia  Neve Forte  Precipitazioni Forti  Vento > 20 kt
SIGMETs :   Varie  Temporali  Ghiacco  Turbolenza  Onda orograficha  Ceneri Vulcaniche






- Altitudine del aeroporto : 30 ft
- Codice IATA : CFN


EIDL - Donegal

ULTIMO METAR :
  • 091100Z VRB03KT 9999 OVC035 19/13 Q1021

METARs OBSOLETI :
  • 091030Z 22005KT 9999 OVC037 18/13 Q1021
  • 091000Z 18006KT 9999 BKN047 18/13 Q1021
  • 090930Z 18006KT 9999 BKN047 18/13 Q1021

TAF TAF EIDL
Valido dal 09 a 09 ore il 09 a 18 ore UTC


090800Z 0909/0918 VRB03KT 9999 BKN045



MetMap, La meteo Aeronautica in un colpo d'occhio ! - Copyright ORBIFLY Dicembre 2007 - Disclaimer

ORBIFLY MET'MAP TEAM :

Programmazione e sviluppo : Alexandra Zaïnal
Concezione : Baudouin d'Aumeries
Aiuto per la programmazione : Marc-Olivier Méhu
Supporto tecnico e logistico : Manuel Goepfert
Aiuto per la traduzione : Arnaldo La Scala

Contatto : metmap@orbifly.com




FONTI E CREDITI :

   NOAA